Wind_Speed
14 14 14 14 14 14 14 14 14 13 12 10 10 9 9 6 8 7 3 4 5 1 3 3 0 0 3 0 1 4 3 9 7 8 8 10 8 5 10 17 8 3 17 24 26
14 14 15 15 14 14 14 14 14 13 13 11 10 9 10 7 7 8 8 6 6 3 3 0 1 2 4 3 2 6 8 7 4 5 9 8 6 12 11 12 10 13 18 28 27
14 15 15 16 16 16 15 15 15 14 13 11 10 9 8 6 3 6 11 11 9 5 3 2 2 2 5 6 6 9 8 8 7 5 8 8 8 7 11 6 9 21 27 27 25
14 15 16 17 17 18 17 16 15 15 14 11 9 8 7 3 6 5 11 15 12 8 4 3 3 1 5 7 5 11 8 6 7 5 8 6 7 7 5 6 11 21 28 26 22
15 15 16 17 18 18 18 17 16 14 13 10 8 6 4 5 6 5 9 16 15 10 7 5 3 4 8 6 7 11 8 6 7 6 8 5 4 4 6 11 18 24 25 23 20
16 16 17 18 19 19 19 17 15 14 11 8 6 5 3 9 8 6 5 15 13 11 6 3 4 4 7 6 6 4 7 9 7 7 6 3 6 7 8 15 21 25 24 22 19
16 17 17 18 19 19 18 15 14 10 8 6 5 4 6 7 5 8 6 10 14 9 4 4 2 4 1 8 6 6 7 9 8 7 5 8 8 2 15 18 22 23 23 21 19
17 17 17 18 19 20 17 14 11 8 7 5 3 3 5 7 10 9 8 7 13 11 4 4 1 1 3 8 5 4 4 6 5 7 5 8 8 8 18 20 22 23 22 22 20
18 18 17 17 17 17 16 13 8 8 8 5 3 1 3 3 3 8 9 6 8 7 6 8 3 4 6 9 8 3 7 4 5 5 3 6 8 14 17 19 21 22 23 22 22
18 18 17 16 16 14 14 11 9 7 5 4 5 4 4 5 3 6 10 8 9 10 9 10 10 10 10 8 1 3 4 3 6 4 4 4 7 13 18 19 19 22 23 23 23
19 19 16 15 15 11 11 8 6 1 7 9 4 5 1 3 2 9 11 10 9 14 14 15 12 15 16 11 4 1 2 2 6 4 4 4 5 13 19 19 19 21 23 24 24
18 18 15 13 13 9 5 4 5 6 9 9 12 15 13 4 5 10 13 15 13 14 15 8 17 17 15 12 9 8 6 3 6 3 4 2 7 10 19 23 22 22 23 23 23
18 18 15 12 8 8 2 4 10 9 7 2 3 3 5 12 9 12 19 20 14 17 15 17 13 16 9 12 14 13 11 2 6 4 6 8 8 8 15 18 22 22 22 22 24
17 17 15 10 2 9 1 10 12 4 5 6 3 3 6 7 8 9 19 18 8 15 13 12 5 9 18 19 16 17 3 4 3 6 3 3 1 9 11 15 19 22 24 23 25
16 16 14 9 8 4 4 10 8 2 5 4 5 4 9 10 11 9 16 15 13 10 10 11 10 14 19 20 15 16 0 4 3 10 7 10 7 9 9 10 15 23 26 26 26
15 15 14 10 8 5 5 8 2 6 2 4 4 6 11 10 7 11 16 10 6 9 14 10 2 12 16 14 7 8 8 9 9 10 10 7 7 9 10 5 4 11 25 30 28
14 15 14 10 3 6 5 2 5 6 3 5 2 7 12 10 9 14 16 16 10 12 12 15 10 6 8 11 11 12 14 11 12 11 10 6 7 10 5 5 1 3 20 28 28
14 14 11 10 8 6 3 6 6 3 0 2 1 5 10 10 9 13 14 15 15 12 8 13 15 14 13 16 13 16 18 11 10 11 8 5 7 3 3 4 3 3 14 25 27
13 12 6 5 6 5 7 8 3 1 1 3 4 8 9 10 5 11 12 16 15 14 10 12 14 9 7 12 12 15 15 16 17 4 8 4 5 10 3 3 2 7 10 21 24
12 6 3 7 6 9 8 8 2 2 4 3 3 3 8 12 11 10 12 11 16 18 16 4 11 8 12 7 7 10 16 10 10 12 10 9 6 9 7 6 4 8 9 15 19
7 4 5 5 12 8 8 5 3 4 4 4 2 2 2 4 12 12 10 7 15 19 19 10 10 9 8 14 15 10 9 12 10 7 9 9 7 8 5 5 5 8 6 7 11
3 4 3 7 7 5 8 4 1 5 5 5 6 7 5 3 8 10 11 8 11 16 19 18 7 10 16 11 8 15 19 16 11 13 10 11 10 4 3 5 7 7 6 4 5
5 2 3 1 5 7 4 6 5 5 5 3 4 6 1 4 4 10 6 3 12 17 15 16 10 9 11 10 8 14 14 13 15 14 11 8 9 7 6 6 8 8 6 6 7
3 3 4 7 3 8 5 6 5 5 8 7 8 7 7 8 7 2 3 2 8 18 7 16 16 14 11 14 13 20 14 16 16 12 12 10 13 11 7 8 11 9 7 10 13
2 2 2 3 8 6 5 0 6 5 5 5 5 8 6 5 5 4 2 8 6 11 8 15 16 14 4 4 5 8 14 14 16 15 12 7 12 15 3 7 12 11 10 13 18
4 3 4 4 4 7 7 9 9 5 4 5 6 3 7 8 7 9 7 3 4 7 16 17 9 11 11 6 8 8 7 10 16 16 9 14 11 8 5 14 13 12 13 15 19
2 3 3 2 5 6 6 8 6 2 5 7 5 10 9 7 11 15 16 16 15 7 13 15 9 9 12 9 6 9 12 11 11 11 14 14 4 5 10 15 15 16 17 18 20
Wind_Direction
8 6 5 3 358 351 347 345 343 339 333 318 301 295 290 268 256 259 258 218 186 240 340 74 191 264 178 231 22 270 94 70 63 58 118 128 105 82 109 130 109 106 146 154 155
5 2 360 357 353 348 343 339 337 335 331 320 301 294 294 289 258 247 223 192 186 200 146 322 21 147 124 86 41 347 50 63 48 86 127 143 117 127 140 125 116 122 132 152 156
0 358 355 352 349 345 339 334 332 331 328 319 301 290 288 306 273 202 208 188 195 202 254 264 331 310 110 69 34 33 89 120 90 77 140 130 138 146 145 165 138 146 147 156 162
354 353 351 349 346 341 335 329 328 326 322 314 303 288 279 269 230 200 197 193 193 194 246 262 310 318 60 80 81 97 97 105 116 119 153 161 137 144 68 73 137 153 154 160 168
347 349 348 346 343 339 333 328 325 322 317 309 301 286 270 248 249 203 197 194 192 195 244 267 311 338 56 87 107 105 109 96 139 116 136 144 163 107 110 120 137 149 157 165 170
340 343 344 343 341 339 332 329 326 322 318 307 296 282 265 242 245 215 188 189 188 199 234 273 356 35 68 80 34 116 117 116 133 127 119 174 137 149 136 141 147 157 164 166 170
332 335 339 341 340 338 333 330 328 327 331 321 301 281 253 246 237 206 169 179 197 195 235 257 322 328 348 123 105 146 135 139 147 153 138 129 155 173 153 157 156 165 170 170 172
329 331 336 338 338 338 334 330 321 320 320 322 316 299 258 249 221 194 175 179 194 196 206 254 258 138 328 129 145 146 170 144 143 192 163 223 114 144 161 166 166 171 172 175 178
327 330 335 336 337 339 336 330 319 307 304 300 321 251 220 277 199 204 189 179 184 189 202 190 192 239 185 235 178 197 93 56 133 188 167 245 116 158 173 175 174 177 181 183 182
323 327 334 335 336 340 344 331 320 314 310 308 260 247 219 174 204 193 195 175 182 176 168 185 203 219 233 234 67 87 107 111 30 87 231 217 126 167 182 186 181 184 187 191 193
318 321 330 334 335 343 356 7 342 293 297 270 299 292 174 261 234 201 195 184 184 199 201 197 210 218 216 227 20 294 317 25 86 34 267 244 246 172 184 195 190 189 192 197 200
320 317 324 330 335 343 1 38 33 320 303 277 265 254 246 252 212 196 187 196 202 205 210 181 222 219 232 228 228 238 266 116 128 65 267 222 262 188 184 198 200 196 194 198 198
324 321 323 327 332 341 30 9 344 346 261 215 230 253 207 203 220 185 188 199 208 213 204 225 215 226 230 213 233 239 256 44 347 332 243 292 230 181 190 201 202 206 204 199 198
324 323 324 330 358 343 354 333 337 343 265 122 164 139 161 179 215 194 194 187 205 217 214 238 168 231 225 230 225 248 125 191 247 281 323 327 298 175 169 202 206 207 204 205 204
325 321 325 321 309 337 256 327 326 312 249 90 103 150 169 206 123 176 180 201 207 204 199 200 210 220 226 226 225 254 231 216 242 265 263 194 261 110 158 194 208 211 211 209 202
326 318 320 313 304 255 311 325 303 230 166 128 124 170 176 195 177 143 174 201 252 209 225 255 222 237 235 234 228 244 232 220 242 269 268 216 253 169 151 93 157 195 205 208 204
323 315 311 299 244 259 301 269 239 253 134 122 91 170 201 172 165 175 186 195 195 200 201 205 198 191 232 215 216 209 226 234 227 228 244 110 234 268 54 48 154 226 193 199 202
318 315 306 283 251 244 218 230 249 57 154 120 235 203 204 176 170 191 187 203 214 243 229 203 206 199 191 222 209 217 228 229 216 241 240 142 237 218 70 347 343 202 180 189 195
319 324 304 276 241 198 209 221 316 159 13 330 181 202 188 203 244 195 209 218 205 220 237 210 229 177 198 209 232 192 228 245 272 232 283 246 196 272 159 116 76 142 158 184 194
329 333 236 280 215 173 229 255 253 275 314 270 266 250 200 181 202 202 195 220 224 208 240 200 235 185 179 195 215 260 213 208 234 257 242 244 232 278 201 292 148 154 177 173 192
333 266 311 143 153 195 229 227 248 231 264 289 262 259 229 192 221 196 186 214 210 197 214 232 243 157 170 207 193 195 209 234 282 237 275 257 247 262 283 307 187 149 177 184 196
326 226 194 142 212 215 226 226 7 252 221 272 286 273 256 204 216 223 220 243 195 187 197 216 230 189 207 196 263 232 217 217 224 218 242 286 291 12 116 149 163 137 140 140 172
325 279 223 227 227 210 189 230 255 244 232 242 259 244 248 273 247 223 233 326 185 184 201 196 232 214 174 183 192 230 231 255 244 247 270 260 274 137 145 161 149 141 122 137 132
327 223 165 212 266 287 208 206 212 202 262 261 279 268 266 247 216 253 226 111 208 220 232 192 224 233 210 215 202 206 215 227 247 236 244 233 266 170 169 167 159 143 135 123 122
312 68 333 178 205 245 248 347 215 222 209 248 237 249 303 272 247 192 183 318 177 213 222 221 232 219 235 318 265 227 201 212 228 238 258 277 231 240 67 176 162 145 134 129 131
322 338 320 270 242 235 200 231 247 222 239 185 251 337 302 282 319 303 326 324 2 181 208 216 221 194 232 228 242 225 225 221 222 248 257 268 274 85 116 151 155 151 139 140 133
351 289 278 167 217 231 212 241 243 255 214 261 307 313 294 342 327 298 292 284 271 284 205 218 208 200 217 196 214 230 210 215 225 231 234 237 327 136 161 170 162 153 147 138 130
Height
1543 1541 1539 1537 1535 1531 1528 1526 1524 1522 1520 1518 1516 1515 1514 1515 1514 1515 1517 1517 1517 1516 1515 1515 1515 1517 1516 1515 1515 1512 1504 1518 1521 1517 1525 1528 1528 1531 1532 1535 1538 1541 1542 1550 1555
1544 1541 1539 1537 1534 1531 1528 1525 1523 1520 1519 1517 1515 1514 1512 1513 1513 1513 1514 1515 1516 1516 1517 1518 1517 1516 1514 1514 1514 1506 1510 1522 1521 1520 1522 1526 1528 1532 1533 1536 1540 1543 1546 1551 1556
1544 1541 1538 1536 1533 1530 1527 1524 1521 1519 1517 1515 1514 1513 1512 1512 1513 1512 1512 1514 1515 1515 1515 1517 1517 1515 1511 1511 1514 1514 1518 1522 1525 1524 1523 1526 1529 1531 1532 1532 1536 1542 1547 1553 1557
1543 1540 1538 1535 1532 1529 1526 1523 1520 1517 1515 1513 1512 1512 1511 1512 1511 1508 1510 1512 1514 1515 1515 1517 1516 1511 1508 1511 1516 1518 1520 1522 1526 1527 1525 1526 1528 1530 1531 1532 1536 1542 1548 1554 1558
1542 1540 1537 1534 1531 1528 1524 1521 1518 1515 1513 1511 1511 1510 1511 1512 1510 1508 1508 1510 1513 1515 1515 1516 1513 1511 1510 1513 1514 1516 1520 1523 1525 1527 1527 1529 1529 1530 1534 1536 1539 1544 1549 1554 1557
1541 1538 1535 1533 1529 1526 1522 1519 1516 1513 1511 1510 1509 1509 1511 1511 1507 1507 1508 1509 1513 1514 1516 1516 1515 1514 1513 1516 1514 1518 1519 1523 1525 1526 1529 1527 1530 1532 1536 1539 1542 1546 1550 1553 1556
1539 1537 1534 1531 1528 1524 1520 1517 1514 1512 1510 1509 1508 1508 1509 1508 1505 1507 1508 1510 1511 1514 1516 1516 1515 1515 1515 1515 1520 1519 1517 1519 1522 1525 1528 1528 1532 1530 1536 1540 1543 1547 1550 1553 1555
1538 1535 1532 1529 1526 1522 1518 1516 1513 1511 1509 1508 1508 1508 1507 1504 1505 1506 1508 1510 1511 1512 1514 1514 1515 1516 1515 1517 1517 1514 1512 1522 1520 1523 1526 1526 1533 1531 1536 1540 1542 1546 1550 1553 1555
1536 1533 1531 1528 1524 1520 1517 1513 1511 1510 1508 1508 1508 1508 1505 1504 1506 1507 1508 1512 1512 1514 1514 1514 1516 1514 1516 1509 1508 1509 1520 1520 1517 1520 1520 1521 1527 1531 1535 1538 1542 1545 1549 1552 1554
1534 1531 1529 1526 1522 1519 1515 1512 1510 1508 1507 1507 1507 1510 1505 1505 1505 1506 1507 1510 1512 1514 1516 1516 1515 1510 1507 1507 1517 1518 1515 1519 1519 1516 1518 1517 1521 1529 1534 1535 1539 1543 1546 1550 1552
1532 1529 1527 1524 1521 1518 1515 1511 1513 1511 1509 1506 1505 1504 1504 1505 1504 1506 1508 1510 1511 1511 1507 1511 1511 1511 1503 1502 1506 1510 1513 1517 1516 1517 1516 1515 1515 1521 1531 1534 1535 1538 1543 1546 1549
1530 1527 1525 1523 1520 1518 1516 1517 1516 1517 1509 1503 1502 1501 1502 1503 1503 1505 1507 1510 1509 1505 1504 1512 1509 1499 1499 1501 1507 1508 1510 1510 1514 1515 1516 1511 1513 1511 1522 1527 1531 1534 1537 1541 1545
1527 1524 1523 1521 1519 1518 1516 1516 1514 1512 1510 1499 1499 1498 1500 1503 1501 1500 1505 1505 1506 1504 1505 1503 1499 1500 1504 1506 1509 1506 1508 1509 1517 1512 1509 1509 1507 1510 1514 1522 1527 1530 1534 1537 1540
1525 1522 1520 1519 1521 1517 1518 1515 1513 1511 1500 1492 1493 1496 1498 1500 1500 1500 1502 1506 1505 1503 1502 1502 1500 1506 1506 1505 1504 1509 1498 1509 1515 1517 1520 1508 1516 1505 1509 1516 1520 1524 1528 1532 1536
1523 1520 1519 1518 1518 1518 1517 1514 1512 1512 1502 1491 1493 1496 1497 1496 1493 1499 1502 1504 1500 1503 1506 1503 1506 1508 1504 1500 1499 1506 1503 1507 1512 1512 1511 1508 1515 1501 1504 1510 1510 1515 1519 1523 1528
1520 1518 1517 1516 1515 1516 1514 1513 1513 1507 1503 1489 1491 1491 1494 1493 1492 1497 1501 1503 1501 1500 1504 1497 1505 1502 1498 1498 1501 1502 1507 1507 1507 1508 1523 1500 1510 1495 1495 1499 1500 1504 1510 1514 1520
1518 1516 1514 1514 1516 1514 1514 1515 1506 1500 1487 1491 1488 1488 1486 1488 1489 1492 1496 1498 1498 1509 1506 1502 1503 1502 1503 1504 1504 1509 1509 1524 1529 1524 1522 1496 1510 1490 1487 1492 1497 1497 1502 1509 1515
1515 1512 1511 1510 1511 1512 1513 1511 1511 1491 1487 1487 1488 1488 1489 1484 1485 1488 1491 1494 1491 1490 1488 1502 1514 1499 1498 1497 1500 1504 1500 1510 1538 1522 1510 1501 1516 1494 1488 1493 1495 1496 1497 1504 1510
1512 1510 1508 1507 1509 1510 1514 1503 1489 1490 1490 1488 1484 1487 1488 1484 1486 1487 1488 1488 1487 1491 1498 1497 1497 1487 1492 1493 1494 1497 1505 1487 1498 1496 1510 1493 1494 1484 1486 1490 1494 1495 1497 1502 1506
1510 1508 1509 1506 1507 1510 1507 1500 1493 1494 1493 1490 1486 1483 1483 1483 1490 1487 1486 1480 1483 1486 1487 1487 1501 1487 1491 1497 1496 1492 1488 1508 1501 1526 1532 1503 1505 1499 1487 1484 1489 1493 1496 1499 1504
1509 1509 1506 1505 1506 1510 1498 1492 1494 1495 1496 1491 1487 1485 1481 1481 1480 1480 1478 1477 1478 1482 1487 1485 1489 1493 1492 1493 1489 1497 1496 1493 1485 1491 1511 1515 1501 1473 1478 1480 1486 1492 1497 1500 1502
1509 1503 1506 1506 1507 1501 1494 1495 1500 1494 1495 1493 1491 1486 1482 1480 1478 1477 1478 1473 1475 1476 1487 1485 1480 1489 1490 1478 1482 1478 1484 1482 1501 1506 1497 1498 1500 1472 1479 1485 1489 1492 1495 1499 1501
1511 1509 1506 1506 1496 1495 1496 1496 1497 1493 1492 1491 1488 1486 1483 1481 1484 1472 1470 1472 1475 1477 1480 1482 1488 1494 1489 1488 1486 1486 1480 1474 1474 1475 1493 1505 1494 1475 1481 1485 1490 1492 1494 1498 1499
1512 1502 1506 1507 1504 1496 1494 1492 1493 1495 1494 1493 1488 1486 1482 1478 1475 1476 1473 1473 1476 1475 1477 1477 1473 1480 1487 1480 1468 1486 1478 1478 1475 1487 1485 1484 1483 1474 1477 1484 1490 1493 1495 1496 1498
1514 1508 1509 1497 1500 1499 1499 1496 1492 1491 1492 1491 1486 1486 1483 1482 1473 1474 1472 1471 1474 1476 1477 1473 1476 1474 1468 1473 1472 1468 1471 1475 1479 1473 1481 1473 1477 1469 1473 1481 1487 1492 1495 1497 1499
1515 1514 1512 1506 1505 1502 1499 1493 1493 1489 1492 1486 1488 1484 1486 1485 1479 1480 1476 1473 1468 1474 1472 1467 1472 1470 1478 1473 1473 1475 1470 1470 1474 1470 1470 1470 1471 1469 1479 1483 1490 1493 1494 1498 1499
1515 1515 1515 1505 1500 1499 1491 1492 1491 1496 1491 1492 1492 1492 1485 1482 1486 1483 1480 1478 1476 1472 1470 1466 1464 1475 1482 1472 1474 1483 1468 1469 1468 1467 1469 1476 1469 1474 1481 1485 1487 1492 1495 1499 1501